Eastman, GA

7:35 PM EDT on July 24, 2017 (GMT -0400)
Heart Of Georgia Regional

Weather History for KEZM - September, 2013

Change the Weather History Date:

Tuesday, September 3, 2013

  Actual Average Record
Temperature  
Mean Temperature 82 °F -  
Max Temperature 93 °F 88 °F 93 °F (2013)
Min Temperature 72 °F 68 °F 64 °F (2016)
Cooling Degree Days 18    
Growing Degree Days 32 (Base 50)    
Moisture  
Dew Point 76 °F    
Average Humidity 83    
Maximum Humidity 100    
Minimum Humidity 56    
Precipitation  
Precipitation 0.00 in - - ()
Sea Level Pressure  
Sea Level Pressure 29.96 in    
Wind  
Wind Speed 2 mph (West)    
Max Wind Speed 8 mph    
Max Gust Speed -    
Visibility 7 miles    
Events Fog , Thunderstorm    
Averages and records for this station are not official NWS values.
T = Trace of Precipitation, MM = Missing Value Source: NWS Daily Summary

Daily Weather History Graph

Daily Weather History Graph

Search for Another Location

Airport or City:

Trip Planner

Search our weather history database for the weather conditions in past years. The results will help you decide how hot, cold, wet, or windy it might be!

Date:

Astronomy

Sep. 03, 2013 Rise Set
Actual Time 7:09 AM EDT 7:53 PM EDT
Civil Twilight 6:44 AM EDT 8:18 PM EDT
Nautical Twilight 6:14 AM EDT 8:48 PM EDT
Astronomical Twilight 5:44 AM EDT 9:17 PM EDT
Moon 5:24 AM EDT (9/3) 6:39 PM EDT (9/3)
Length of Visible Light 13h 34m
Length of Day
12h 44m
Waning Crescent, 3% of the Moon is Illuminated
Sep 3
Waning Crescent
Sep 5
New
Sep 12
First Quarter
Sep 19
Full
Sep 26
Last Quarter

Hourly Weather History & Observations

Time (EDT) Temp. Heat Index Dew Point Humidity Pressure Visibility Wind Dir Wind Speed Gust Speed Precip Events Conditions
12:15 AM 77.0 °F - 74.8 °F 93% 29.95 in 10.0 mi Calm Calm - N/A   Clear
12:35 AM 76.3 °F - 74.8 °F 95% 29.95 in 10.0 mi Calm Calm - N/A   Clear
12:55 AM 76.1 °F - 75.0 °F 96% 29.94 in 7.0 mi Calm Calm - N/A   Clear
1:15 AM 75.4 °F - 75.0 °F 99% 29.94 in 5.0 mi Calm Calm - N/A   Clear
1:35 AM 75.2 °F - 75.0 °F 99% 29.94 in 4.0 mi Calm Calm - N/A   Clear
1:55 AM 75.0 °F - 74.8 °F 99% 29.94 in 4.0 mi Calm Calm - N/A   Clear
2:15 AM 75.9 °F - 75.7 °F 99% 29.94 in 5.0 mi Calm Calm - N/A   Clear
2:35 AM 75.2 °F - 74.8 °F 99% 29.94 in 4.0 mi SSW 3.5 mph - N/A   Clear
2:55 AM 75.0 °F - 75.0 °F 100% 29.93 in 2.5 mi Calm Calm - N/A   Clear
3:15 AM 75.2 °F - 75.2 °F 100% 29.93 in 1.2 mi Calm Calm - N/A   Mist
3:35 AM 75.4 °F - 75.4 °F 100% 29.94 in 1.0 mi Calm Calm - N/A   Mist
3:55 AM 74.8 °F - 74.8 °F 100% 29.94 in 2.0 mi Calm Calm - N/A   Scattered Clouds
4:15 AM 74.5 °F - 74.5 °F 100% 29.94 in 0.2 mi Calm Calm - N/A Fog Fog
4:35 AM 73.9 °F - 73.9 °F 100% 29.94 in 0.2 mi Calm Calm - N/A Fog Fog
4:55 AM 75.2 °F - 75.2 °F 100% 29.94 in 0.5 mi Calm Calm - N/A Fog Fog
5:15 AM 73.4 °F - 73.4 °F 100% 29.94 in 0.2 mi Calm Calm - N/A Fog Fog
5:35 AM 73.4 °F - 73.4 °F 100% 29.94 in 0.2 mi Calm Calm - N/A Fog Fog
5:55 AM 72.9 °F - 72.9 °F 100% 29.94 in 0.5 mi Calm Calm - N/A Fog Fog
6:15 AM 73.6 °F - 73.6 °F 100% 29.95 in 1.8 mi Calm Calm - N/A   Scattered Clouds
6:35 AM 74.5 °F - 74.5 °F 100% 29.96 in 2.5 mi Calm Calm - N/A   Clear
6:55 AM 74.7 °F - 74.7 °F 100% 29.97 in 2.5 mi Calm Calm - N/A   Clear
7:15 AM 74.8 °F - 74.8 °F 100% 29.97 in 2.5 mi Calm Calm - N/A   Clear
7:35 AM 75.2 °F - 75.2 °F 100% 29.97 in 2.5 mi Calm Calm - N/A   Clear
7:55 AM 75.6 °F - 75.6 °F 100% 29.97 in 3.0 mi Calm Calm - N/A   Clear
8:15 AM 76.5 °F - 76.3 °F 99% 29.97 in 4.0 mi Calm Calm - N/A   Clear
8:35 AM 77.9 °F - 76.5 °F 95% 29.97 in 7.0 mi Calm Calm - N/A   Clear
8:55 AM 78.8 °F - 76.8 °F 94% 29.99 in 7.0 mi Calm Calm - N/A   Clear
9:15 AM 79.5 °F - 77.0 °F 92% 29.99 in 7.0 mi Calm Calm - N/A   Clear
9:35 AM 80.8 °F 87.6 °F 77.2 °F 89% 30.00 in 10.0 mi West 3.5 mph - N/A   Clear
9:55 AM 82.0 °F 90.5 °F 77.4 °F 86% 30.01 in 10.0 mi WNW 4.6 mph - N/A   Clear
10:15 AM 84.0 °F 94.8 °F 77.9 °F 82% 30.01 in 10.0 mi NW 8.1 mph - N/A   Clear
10:35 AM 85.5 °F 97.7 °F 78.4 °F 79% 30.01 in 10.0 mi WNW 4.6 mph - N/A   Clear
10:55 AM 87.3 °F 100.9 °F 78.6 °F 75% 30.01 in 10.0 mi WNW 5.8 mph - N/A   Clear
11:15 AM 88.3 °F 102.9 °F 78.6 °F 73% 30.01 in 10.0 mi WNW 6.9 mph - N/A   Clear
11:35 AM 87.6 °F 100.8 °F 77.9 °F 73% 30.00 in 10.0 mi Calm Calm - N/A   Clear
11:55 AM 89.2 °F 105.0 °F 79.0 °F 72% 30.00 in 10.0 mi West 3.5 mph - N/A   Clear
12:15 PM 90.0 °F 104.5 °F 78.1 °F 68% 29.99 in 10.0 mi West 4.6 mph - N/A   Clear
12:35 PM 89.8 °F 104.0 °F 77.9 °F 68% 29.99 in 10.0 mi West 5.8 mph - N/A   Scattered Clouds
12:55 PM 90.3 °F 104.2 °F 77.7 °F 66% 29.99 in 10.0 mi West 5.8 mph - N/A   Scattered Clouds
1:15 PM 90.7 °F 106.6 °F 78.8 °F 68% 29.98 in 10.0 mi West 5.8 mph - N/A   Scattered Clouds
1:35 PM 91.2 °F 106.0 °F 77.9 °F 65% 29.98 in 10.0 mi WSW 6.9 mph - N/A   Scattered Clouds
1:55 PM 91.2 °F 106.0 °F 77.9 °F 65% 29.97 in 10.0 mi WSW 5.8 mph - N/A   Scattered Clouds
2:15 PM 92.3 °F 106.9 °F 77.5 °F 62% 29.97 in 10.0 mi West 6.9 mph - N/A   Scattered Clouds
2:35 PM 93.2 °F 107.2 °F 77.0 °F 59% 29.97 in 10.0 mi West 6.9 mph - N/A   Scattered Clouds
2:55 PM 93.6 °F 108.9 °F 77.7 °F 60% 29.95 in 10.0 mi West 8.1 mph - N/A   Scattered Clouds
3:15 PM 92.3 °F 104.8 °F 76.1 °F 59% 29.95 in 10.0 mi West 5.8 mph - N/A   Scattered Clouds
3:35 PM 93.4 °F 105.5 °F 75.4 °F 56% 29.93 in 10.0 mi WNW 6.9 mph - N/A Thunderstorm Scattered Clouds
3:55 PM 90.7 °F 103.8 °F 76.8 °F 64% 29.92 in 10.0 mi West 3.5 mph - N/A   Scattered Clouds
4:15 PM 90.7 °F 104.5 °F 77.4 °F 65% 29.92 in 10.0 mi West 4.6 mph - N/A   Clear
4:35 PM 92.8 °F 107.7 °F 77.5 °F 61% 29.92 in 10.0 mi West 4.6 mph - N/A   Clear
4:55 PM 93.0 °F 107.4 °F 77.4 °F 60% 29.92 in 10.0 mi SW 5.8 mph - N/A   Scattered Clouds
5:15 PM 93.4 °F 106.9 °F 76.8 °F 58% 29.93 in 10.0 mi SW 6.9 mph - N/A   Scattered Clouds
5:35 PM 92.3 °F 106.2 °F 77.0 °F 61% 29.93 in 10.0 mi WSW 5.8 mph - N/A   Scattered Clouds
5:55 PM 91.6 °F 105.6 °F 77.2 °F 63% 29.93 in 10.0 mi WSW 8.1 mph - N/A   Clear
6:15 PM 90.9 °F 105.0 °F 77.7 °F 65% 29.93 in 10.0 mi WSW 5.8 mph - N/A   Clear
6:35 PM 90.5 °F 103.4 °F 77.0 °F 64% 29.93 in 10.0 mi West 8.1 mph - N/A   Clear
6:55 PM 89.1 °F 101.4 °F 76.8 °F 67% 29.94 in 10.0 mi West 4.6 mph - N/A   Clear
7:15 PM 87.1 °F 99.3 °F 77.4 °F 73% 29.94 in 10.0 mi West 3.5 mph - N/A   Clear
7:35 PM 86.4 °F 97.8 °F 77.4 °F 74% 29.95 in 10.0 mi SW 3.5 mph - N/A   Scattered Clouds
7:55 PM 85.3 °F 97.2 °F 78.1 °F 79% 29.95 in 10.0 mi West 3.5 mph - N/A Thunderstorm Scattered Clouds
8:15 PM 85.5 °F 97.2 °F 77.9 °F 78% 29.95 in 10.0 mi West 4.6 mph - N/A Thunderstorm Scattered Clouds
8:35 PM 84.9 °F 96.1 °F 77.9 °F 79% 29.97 in 10.0 mi NW 6.9 mph - N/A   Mostly Cloudy
8:55 PM 83.7 °F 92.4 °F 76.3 °F 78% 29.97 in 10.0 mi North 4.6 mph - N/A   Scattered Clouds
9:15 PM 82.6 °F 90.2 °F 75.9 °F 80% 29.97 in 10.0 mi Calm Calm - N/A   Clear
9:35 PM 82.0 °F 89.1 °F 75.6 °F 81% 29.99 in 10.0 mi Calm Calm - N/A   Clear
9:55 PM 81.1 °F 87.4 °F 75.6 °F 83% 30.00 in 10.0 mi Calm Calm - N/A   Clear
10:15 PM 79.2 °F - 76.1 °F 90% 30.00 in 10.0 mi Calm Calm - N/A   Clear
10:35 PM 78.4 °F - 75.7 °F 91% 30.00 in 10.0 mi Calm Calm - N/A   Clear
10:55 PM 77.7 °F - 75.4 °F 92% 30.01 in 10.0 mi Calm Calm - N/A   Clear
11:15 PM 76.6 °F - 75.7 °F 97% 30.01 in 7.0 mi Calm Calm - N/A   Clear
11:35 PM 76.5 °F - 76.1 °F 99% 30.02 in 7.0 mi Calm Calm - N/A   Clear
11:55 PM 78.3 °F - 76.1 °F 93% 30.02 in 10.0 mi South 3.5 mph - N/A   Clear